Theta_e
293 293 292 293 293 294 295 296 296 295 295 295 295 295 295 295 295 295 295 296 296 297 298 299 302 303 307 307 307 308 318 322 325 329 330 331 331 331 331 330 331 331 331 330
291 290 292 293 295 295 296 297 297 296 296 296 296 296 295 295 295 295 294 294 295 296 297 298 301 303 304 307 307 307 312 319 323 325 328 329 330 328 330 328 329 328 329 328
289 292 293 294 295 295 295 296 297 297 296 296 296 297 296 295 294 294 295 294 294 295 296 296 298 302 304 305 307 307 308 316 318 322 323 325 328 329 327 327 326 327 328 328
288 293 295 294 294 294 295 296 296 296 296 295 296 296 295 295 294 294 294 294 294 295 295 296 297 301 303 304 305 306 307 310 315 318 317 319 320 326 327 327 327 327 327 327
291 293 294 293 294 294 294 293 294 294 295 295 295 296 294 293 293 294 294 294 294 295 296 296 297 299 303 304 304 305 306 307 312 316 316 316 323 325 326 325 324 328 326 327
292 293 292 291 293 292 292 294 292 289 291 288 294 293 293 294 294 293 295 294 294 295 296 297 297 298 301 304 304 305 307 308 311 316 317 315 318 324 323 322 322 324 326 326
292 292 293 293 287 288 289 287 287 286 283 289 293 294 293 292 291 291 292 295 293 292 296 297 297 297 299 300 302 304 307 310 311 313 315 314 315 323 322 321 319 319 321 322
286 290 291 292 290 287 289 294 295 293 292 292 293 294 293 292 290 290 290 291 292 292 292 292 295 298 300 302 304 310 310 314 314 312 314 312 314 316 317 318 319 319 318 323
289 288 291 291 292 289 288 291 294 295 283 286 293 295 292 290 289 289 289 290 290 290 291 291 292 294 299 303 306 310 313 313 313 313 313 313 314 316 316 316 317 317 318 321
291 291 291 291 288 289 290 293 292 288 291 288 291 292 291 288 288 288 287 288 288 288 289 290 291 292 294 300 303 306 310 310 311 312 313 314 316 317 317 318 319 317 317 318
284 289 288 287 282 286 287 292 293 294 292 291 290 286 290 287 287 286 287 286 286 286 287 289 291 291 292 295 297 300 305 309 310 312 313 314 314 314 316 316 317 317 316 316
285 290 283 285 288 286 290 294 294 291 290 291 290 289 288 287 286 286 285 284 284 284 285 287 289 292 292 292 294 296 299 304 307 309 310 311 312 313 313 313 314 314 315 316
284 290 292 285 285 286 290 292 293 292 291 290 291 289 288 287 285 284 284 283 283 283 284 285 287 288 289 290 292 294 297 300 301 302 303 306 308 309 311 311 311 312 312 313
292 286 287 290 289 287 291 290 291 289 289 289 289 287 287 286 285 284 283 282 282 282 283 284 286 287 288 289 289 293 294 295 294 296 299 301 302 305 307 308 311 311 311 311
286 288 281 287 286 288 289 290 290 289 287 288 288 288 285 286 284 283 282 282 282 281 282 283 284 285 286 288 288 291 294 294 293 294 295 296 296 299 304 306 308 309 310 310
284 287 279 289 283 285 291 289 291 290 288 287 286 287 286 285 283 282 282 282 281 281 281 282 283 284 285 285 287 290 291 291 292 293 294 295 295 296 299 302 304 306 307 308
288 285 284 284 280 285 290 290 289 286 285 285 285 286 285 284 282 281 281 281 281 281 281 281 282 283 284 284 286 287 288 289 291 292 293 294 294 295 296 297 300 301 302 304
284 288 290 283 283 286 292 288 288 289 285 285 284 284 283 283 282 282 281 280 280 280 280 281 282 283 284 284 285 286 287 288 289 290 291 292 293 294 295 296 296 297 298 299
288 288 286 285 278 286 292 289 287 288 289 284 283 283 281 283 283 282 281 280 279 280 281 281 282 283 284 285 285 286 287 287 288 288 289 289 290 291 292 293 295 296 296 297
289 289 290 278 289 285 287 286 287 286 290 282 279 277 277 284 280 277 281 279 279 279 280 280 281 282 283 283 284 285 286 286 286 286 287 287 288 289 290 291 291 292 293 295
284 282 288 279 291 285 286 287 288 288 288 281 283 283 282 280 280 282 280 279 279 279 280 279 280 280 280 281 282 284 285 285 285 285 285 286 287 288 288 289 290 290 291 291
285 281 280 280 282 285 287 288 288 285 284 284 284 284 283 282 282 281 280 279 279 280 280 280 280 280 280 281 281 281 282 282 284 284 285 285 286 287 287 287 288 289 289 290
286 286 286 285 285 282 288 290 290 288 286 284 284 284 283 282 281 280 279 279 280 280 280 280 280 280 281 281 281 281 281 281 281 282 284 284 284 285 285 286 286 287 287 288
286 284 287 286 285 283 289 289 288 287 287 285 285 284 283 281 281 280 280 280 280 280 280 281 281 281 281 280 280 280 280 280 280 281 281 283 284 284 284 284 285 285 286 286
287 289 288 287 288 288 289 288 289 287 285 285 284 284 283 281 280 280 280 280 280 280 280 280 281 281 280 280 280 280 280 280 280 280 280 281 282 283 284 284 284 284 284 285
288 288 289 287 288 289 289 290 289 287 286 285 285 283 282 281 280 280 280 280 280 280 280 280 280 280 280 280 279 279 278 279 279 280 280 280 280 281 281 283 283 283 284 284
Wind_Speed
4 2 8 16 11 16 18 18 24 29 28 20 24 22 24 25 25 19 27 28 27 32 33 36 35 41 32 34 39 25 31 37 38 41 44 45 48 49 45 47 45 40 37 39
4 7 14 8 9 17 20 21 23 26 21 16 17 25 24 23 20 23 22 24 25 30 35 36 32 36 43 29 29 36 31 34 37 41 42 45 46 47 51 49 48 43 39 38
5 13 14 14 15 20 20 16 22 23 23 19 19 26 20 24 22 30 32 33 33 34 34 39 36 30 36 35 32 28 32 36 36 38 37 38 43 42 44 47 47 49 44 39
6 4 6 20 17 15 17 11 20 24 16 14 7 14 19 13 15 15 16 26 29 34 36 39 39 34 31 38 35 34 32 37 39 37 36 38 40 45 48 48 46 48 46 43
11 10 20 19 11 9 12 18 18 23 20 14 6 5 1 5 6 11 14 24 29 32 36 37 37 34 34 33 29 34 34 36 42 42 40 39 44 47 48 45 44 47 48 45
14 15 10 8 12 7 17 10 23 4 3 1 8 6 5 6 12 15 13 22 17 24 32 35 35 32 30 30 29 29 34 40 42 41 40 39 42 43 46 42 42 47 52 48
17 3 4 3 10 7 5 7 4 5 4 6 7 9 3 10 15 14 17 16 18 15 4 6 12 23 26 27 27 29 31 39 42 40 41 38 36 41 44 39 38 37 39 54
3 15 5 6 4 7 6 3 2 7 6 17 14 4 4 9 10 18 20 21 17 15 14 11 2 7 14 17 22 25 29 38 37 40 40 38 40 42 42 40 40 44 44 51
5 7 14 15 4 5 6 2 4 6 3 2 4 3 7 21 16 16 15 20 21 20 15 13 9 4 7 11 14 19 23 29 32 34 35 36 39 43 43 44 40 38 42 44
4 15 5 4 5 4 4 5 3 2 5 5 5 2 7 20 18 18 16 15 22 24 18 15 16 11 8 7 8 11 19 24 25 29 29 30 33 36 39 41 40 38 37 38
4 5 9 6 2 7 5 1 2 3 3 3 4 4 5 11 13 14 13 19 21 22 22 15 18 17 14 9 6 7 13 20 22 22 26 26 27 27 30 34 37 39 37 36
7 4 4 11 12 6 5 3 4 2 4 3 3 4 4 7 10 12 13 19 21 22 22 18 21 20 18 15 8 5 8 13 16 20 23 25 27 26 31 32 30 30 33 34
3 4 8 9 6 3 1 4 2 5 5 3 3 4 4 6 10 14 14 20 22 22 25 24 26 26 21 16 13 7 5 6 7 12 16 21 24 26 29 28 29 29 31 35
16 1 6 10 14 6 12 11 13 1 2 4 4 7 9 9 10 13 17 21 21 24 27 29 29 27 23 21 19 14 11 6 1 7 11 14 16 21 25 29 27 27 28 32
3 6 4 13 16 15 17 13 6 3 5 3 4 5 5 8 8 9 15 18 22 24 27 28 27 24 20 20 19 18 18 10 4 0 5 7 9 16 21 24 26 28 31 30
1 5 2 9 8 6 6 5 5 3 2 5 5 4 4 6 11 11 15 18 19 22 25 24 23 21 21 19 18 18 16 12 10 9 5 1 5 8 18 19 21 23 25 26
4 3 1 5 3 6 1 3 3 2 3 3 2 4 4 3 7 10 15 16 17 21 21 20 19 19 19 19 17 16 15 11 13 12 11 8 3 3 8 15 21 20 20 23
5 5 3 4 6 4 3 1 3 3 4 4 6 4 5 3 7 16 19 19 19 19 18 17 16 17 18 18 17 16 14 14 13 11 10 9 7 5 1 5 10 16 21 21
15 4 2 1 2 6 1 3 4 3 4 5 4 5 4 7 11 4 15 14 14 15 16 18 18 18 18 19 18 17 16 15 13 12 11 10 8 7 5 2 3 7 11 14
8 8 2 3 1 4 5 3 3 3 3 5 4 3 3 2 3 3 12 12 13 13 15 17 17 18 19 19 17 16 16 15 15 14 13 11 9 6 5 4 3 1 3 8
2 1 6 5 4 6 4 4 8 3 4 6 7 4 2 2 2 1 5 8 11 14 15 16 18 20 20 19 18 18 17 17 16 14 12 10 8 7 5 4 2 1 1 1
6 5 4 2 2 6 7 5 4 4 6 9 9 7 5 5 5 2 4 7 9 11 13 15 17 18 18 18 17 18 17 16 14 13 12 10 9 7 6 5 4 3 3 2
2 6 4 7 5 5 14 7 8 6 6 11 13 10 10 9 7 7 6 5 7 9 11 13 15 16 17 18 16 14 14 14 12 11 11 10 10 9 7 5 4 4 4 4
3 3 2 3 4 5 14 14 11 10 9 12 13 13 13 12 12 10 7 5 5 7 10 12 14 17 18 17 16 15 14 12 12 12 10 9 9 8 7 8 6 4 3 4
4 4 2 4 7 9 14 15 12 13 12 14 14 15 15 14 13 10 8 4 3 6 9 13 16 18 19 18 17 16 14 12 10 10 10 10 9 8 7 6 6 6 5 4
5 7 5 5 9 6 9 9 9 16 19 17 17 17 16 15 14 11 7 3 1 5 8 11 14 17 19 17 16 15 14 13 12 11 10 10 9 8 7 6 5 5 5 5
Wind_Direction
302 295 257 275 247 262 276 273 273 276 276 274 271 273 267 266 264 262 263 255 255 265 263 268 266 260 261 256 254 246 228 225 223 221 219 211 219 214 215 212 213 210 215 214
333 258 275 285 281 287 284 280 283 283 286 281 280 268 261 261 251 247 247 254 254 259 264 263 260 261 254 255 246 243 231 226 223 223 221 217 222 221 217 214 214 212 212 214
187 260 299 294 293 293 284 277 285 286 301 286 270 272 260 258 254 255 258 254 249 250 255 263 263 252 251 253 249 244 234 229 227 224 221 224 226 227 210 218 219 212 210 211
233 271 284 301 291 287 286 298 294 289 296 294 27 292 284 258 256 253 254 248 244 246 245 252 262 255 245 247 247 251 243 231 229 222 225 226 229 212 220 221 216 220 213 208
253 301 300 301 275 310 278 307 293 292 288 289 300 252 201 296 316 347 326 275 250 247 249 245 253 258 252 246 250 252 248 238 228 221 225 232 226 226 225 221 218 221 218 210
254 265 270 237 283 294 310 301 303 344 304 304 262 182 318 14 339 341 334 352 289 251 245 240 247 251 255 253 253 264 245 238 225 219 222 227 228 222 227 224 218 219 217 212
322 233 271 251 346 319 32 342 312 342 349 238 278 290 347 2 355 342 334 350 356 2 352 243 239 238 247 251 256 259 243 228 224 220 222 224 229 225 232 226 220 219 232 216
327 322 2 299 241 227 291 268 334 306 321 302 300 234 114 27 358 346 344 350 3 8 31 36 14 186 215 234 233 235 226 217 217 219 222 226 229 230 237 237 232 230 230 229
314 269 307 290 256 118 292 338 262 273 292 339 275 43 233 356 356 357 349 356 357 2 26 38 51 133 145 183 197 206 206 203 204 211 218 224 230 230 232 237 239 237 237 235
239 292 283 280 356 324 155 304 329 344 303 311 304 36 331 348 347 351 351 356 357 355 8 47 55 69 85 144 172 179 189 196 197 204 210 213 221 230 234 238 234 235 236 237
200 228 279 7 239 280 340 317 311 263 242 270 304 277 334 356 336 341 348 351 353 352 4 44 65 61 65 91 132 155 165 179 187 196 207 215 221 221 224 233 238 242 243 240
216 256 267 247 283 202 185 240 290 258 289 253 279 267 22 358 338 347 355 355 358 360 15 43 67 63 57 58 58 100 135 165 184 199 207 213 218 226 232 233 238 238 238 240
241 243 296 327 349 343 201 267 286 284 268 228 269 290 74 358 349 357 360 360 2 8 21 36 64 72 69 64 61 51 95 138 198 218 221 216 216 223 232 236 234 237 239 241
286 296 216 263 267 271 298 295 307 161 256 307 242 291 337 356 359 354 2 3 10 17 25 34 51 54 56 56 60 63 68 58 322 238 230 229 226 220 224 234 234 230 238 238
132 257 201 256 263 278 274 280 276 219 244 236 300 282 313 347 355 344 358 10 12 16 25 36 51 51 49 53 54 63 61 47 36 312 227 225 232 220 218 226 232 231 229 231
216 271 69 288 283 241 247 222 258 224 285 274 286 290 11 330 356 10 9 10 17 15 27 40 48 52 52 51 54 65 73 71 72 73 81 161 222 231 226 224 225 225 227 228
237 225 201 263 303 308 340 217 246 211 214 223 280 240 340 332 358 2 10 17 19 23 30 37 44 48 52 50 54 65 68 62 64 67 68 65 80 219 228 233 238 237 232 231
218 205 231 269 349 359 248 203 216 226 224 234 270 267 290 258 141 40 20 15 21 33 39 44 49 51 52 56 57 59 62 60 58 60 61 62 59 60 135 215 228 234 236 234
202 164 257 162 188 286 202 228 178 171 278 194 249 301 303 326 179 38 16 23 27 33 39 44 49 51 50 51 49 48 53 53 53 51 48 49 51 50 56 78 188 223 227 232
208 213 183 81 249 247 233 242 155 109 275 179 171 264 306 264 64 275 356 23 41 45 48 49 52 54 55 53 50 48 48 48 48 42 36 30 25 26 26 39 53 64 222 226
161 304 214 228 244 286 232 158 137 81 257 182 184 209 307 124 142 8 4 40 44 48 53 51 49 50 49 45 42 42 42 42 37 31 27 20 14 12 7 356 348 357 18 217
173 157 203 110 113 283 158 132 181 200 160 187 190 182 171 142 148 137 86 70 64 59 54 49 43 40 37 33 31 32 31 30 25 24 18 14 11 9 359 348 334 307 285 269
277 196 190 174 210 226 186 210 225 218 179 189 193 186 176 167 165 148 139 110 79 65 57 49 39 29 21 14 12 13 14 13 13 11 8 6 8 4 359 353 336 318 296 269
252 182 216 64 277 230 237 234 236 215 208 187 191 185 180 177 166 159 152 135 95 64 50 40 30 23 16 6 359 357 352 350 352 355 351 355 354 356 358 351 346 332 305 284
199 135 216 269 285 286 271 250 249 213 194 182 186 191 184 181 174 172 169 155 81 39 29 22 17 12 8 1 354 353 350 344 332 329 336 336 338 345 342 344 342 329 316 291
191 207 213 232 234 220 267 282 229 203 200 195 190 187 186 185 182 178 178 169 23 2 2 5 4 360 360 359 350 349 348 348 342 327 313 318 317 320 324 328 324 324 315 294